EN

Hourly Weather Dziewoklucz

Today, 23 October, Friday

Time Temperature Precipitation Wind Pressure Humidity
00:00 +13°C° 0 mm 4 mps 751 mmHg 82%
01:00 +13°C° 0 mm 5 mps 751 mmHg 81%
02:00 +14°C° 0 mm 5 mps 751 mmHg 82%
03:00 +14°C° 0 mm 5 mps 750 mmHg 83%
04:00 +14°C° 0 mm 5 mps 750 mmHg 84%
05:00 +14°C° 0 mm 5 mps 750 mmHg 87%
06:00 +13°C° 0 mm 4 mps 750 mmHg 90%
07:00 +13°C° 0 mm 4 mps 750 mmHg 92%
08:00 +14°C° 0 mm 4 mps 750 mmHg 88%
09:00 +15°C° 0 mm 5 mps 750 mmHg 84%
10:00 +16°C° 0 mm 5 mps 751 mmHg 79%
11:00 +17°C° 0 mm 4 mps 750 mmHg 76%
12:00 +17°C° 0 mm 4 mps 750 mmHg 74%
13:00 +18°C° 0 mm 4 mps 750 mmHg 71%
14:00 +17°C° 0 mm 3 mps 750 mmHg 73%
15:00 +17°C° 0 mm 2 mps 750 mmHg 76%
16:00 +16°C° 0 mm 1 mps 750 mmHg 78%
17:00 +16°C° 0.2 mm 1 mps 750 mmHg 82%
18:00 +15°C° 0.2 mm 1 mps 750 mmHg 85%
19:00 +15°C° 0.2 mm 1 mps 750 mmHg 88%
20:00 +14°C° 0.8 mm 2 mps 750 mmHg 91%
21:00 +14°C° 0.8 mm 2 mps 750 mmHg 94%
22:00 +14°C° 0.8 mm 2 mps 750 mmHg 97%
23:00 +14°C° 0.7 mm 2 mps 750 mmHg 97%

Tomorrow, 24 October, Saturday

Time Temperature Precipitation Wind Pressure Humidity
00:00 +14°C° 0.7 mm 2 mps 750 mmHg 97%
01:00 +14°C° 0.7 mm 1 mps 749 mmHg 98%
02:00 +14°C° 0.3 mm 2 mps 749 mmHg 97%
03:00 +14°C° 0.3 mm 2 mps 749 mmHg 96%
04:00 +14°C° 0.3 mm 2 mps 749 mmHg 95%
05:00 +13°C° 0.3 mm 3 mps 749 mmHg 94%
06:00 +13°C° 0.3 mm 3 mps 749 mmHg 93%
07:00 +13°C° 0.3 mm 4 mps 750 mmHg 92%
08:00 +13°C° 0 mm 4 mps 750 mmHg 87%
09:00 +14°C° 0 mm 5 mps 750 mmHg 82%
10:00 +14°C° 0 mm 5 mps 751 mmHg 77%
11:00 +14°C° 0 mm 6 mps 751 mmHg 77%
12:00 +14°C° 0 mm 6 mps 752 mmHg 76%
13:00 +14°C° 0 mm 6 mps 752 mmHg 76%
14:00 +13°C° 0 mm 5 mps 752 mmHg 76%
15:00 +13°C° 0 mm 4 mps 752 mmHg 76%
16:00 +12°C° 0 mm 3 mps 752 mmHg 76%
17:00 +12°C° 0 mm 3 mps 753 mmHg 78%
18:00 +12°C° 0 mm 3 mps 753 mmHg 79%
19:00 +13°C° 0 mm 2 mps 753 mmHg 81%
20:00 +12°C° 0 mm 3 mps 753 mmHg 82%
21:00 +12°C° 0 mm 3 mps 754 mmHg 83%
22:00 +12°C° 0 mm 3 mps 754 mmHg 84%
23:00 +11°C° 0 mm 3 mps 754 mmHg 84%

Day after tomorrow, 25 October, Sunday

Time Temperature Precipitation Wind Pressure Humidity
00:00 +12°C° 0 mm 2 mps 754 mmHg 85%
01:00 +12°C° 0 mm 2 mps 754 mmHg 85%
02:00 +12°C° 0 mm 2 mps 754 mmHg 85%
03:00 +12°C° 0 mm 2 mps 754 mmHg 85%
04:00 +11°C° 0 mm 3 mps 754 mmHg 85%
05:00 +10°C° 0 mm 3 mps 753 mmHg 87%
06:00 +10°C° 0 mm 3 mps 753 mmHg 89%
07:00 +9°C° 0 mm 3 mps 753 mmHg 91%
08:00 +11°C° 0 mm 3 mps 753 mmHg 85%
09:00 +12°C° 0 mm 4 mps 753 mmHg 79%
10:00 +13°C° 0 mm 4 mps 753 mmHg 74%
11:00 +14°C° 0 mm 4 mps 753 mmHg 70%
12:00 +15°C° 0 mm 4 mps 753 mmHg 66%
13:00 +17°C° 0 mm 4 mps 753 mmHg 62%
14:00 +17°C° 0 mm 4 mps 752 mmHg 65%
15:00 +16°C° 0 mm 3 mps 752 mmHg 68%
16:00 +14°C° 0 mm 3 mps 751 mmHg 72%
17:00 +13°C° 0 mm 3 mps 751 mmHg 75%
18:00 +13°C° 0 mm 3 mps 751 mmHg 79%
19:00 +12°C° 0 mm 3 mps 751 mmHg 83%
20:00 +11°C° 0 mm 4 mps 751 mmHg 84%
21:00 +11°C° 0 mm 4 mps 751 mmHg 85%
22:00 +11°C° 0 mm 4 mps 751 mmHg 86%
23:00 +10°C° 0 mm 4 mps 751 mmHg 86%

, 26 October, Monday

Time Temperature Precipitation Wind Pressure Humidity
00:00 +10°C° 0 mm 4 mps 751 mmHg 87%
01:00 +10°C° 0 mm 4 mps 751 mmHg 88%
02:00 +8°C° 0 mm 4 mps 750 mmHg 89%
03:00 +9°C° 0 mm 3 mps 750 mmHg 90%
04:00 +9°C° 0 mm 3 mps 750 mmHg 91%
05:00 +9°C° 0 mm 3 mps 750 mmHg 91%
06:00 +9°C° 0 mm 3 mps 749 mmHg 91%
07:00 +8°C° 0 mm 4 mps 749 mmHg 91%
08:00 +10°C° 0 mm 4 mps 749 mmHg 85%
09:00 +11°C° 0 mm 4 mps 749 mmHg 79%
10:00 +13°C° 0 mm 5 mps 749 mmHg 73%
11:00 +13°C° 0 mm 4 mps 748 mmHg 71%
12:00 +14°C° 0 mm 4 mps 748 mmHg 68%
13:00 +15°C° 0 mm 4 mps 748 mmHg 66%
14:00 +14°C° 0 mm 4 mps 747 mmHg 69%
15:00 +14°C° 0 mm 3 mps 747 mmHg 73%
16:00 +13°C° 0 mm 3 mps 746 mmHg 77%
17:00 +12°C° 0 mm 3 mps 746 mmHg 80%
18:00 +12°C° 0 mm 3 mps 746 mmHg 83%
19:00 +11°C° 0 mm 3 mps 746 mmHg 86%
20:00 +11°C° 0 mm 3 mps 746 mmHg 85%
21:00 +12°C° 0 mm 3 mps 746 mmHg 85%
22:00 +12°C° 0 mm 3 mps 746 mmHg 85%
23:00 +12°C° 0 mm 3 mps 746 mmHg 87%

26 October, Monday

Time Temperature Precipitation Wind Pressure Humidity
00:00 +10°C° 0 mm 4 mps 751 mmHg 87%
01:00 +10°C° 0 mm 4 mps 751 mmHg 88%
02:00 +8°C° 0 mm 4 mps 750 mmHg 89%
03:00 +9°C° 0 mm 3 mps 750 mmHg 90%
04:00 +9°C° 0 mm 3 mps 750 mmHg 91%
05:00 +9°C° 0 mm 3 mps 750 mmHg 91%
06:00 +9°C° 0 mm 3 mps 749 mmHg 91%
07:00 +8°C° 0 mm 4 mps 749 mmHg 91%
08:00 +10°C° 0 mm 4 mps 749 mmHg 85%
09:00 +11°C° 0 mm 4 mps 749 mmHg 79%
10:00 +13°C° 0 mm 5 mps 749 mmHg 73%
11:00 +13°C° 0 mm 4 mps 748 mmHg 71%
12:00 +14°C° 0 mm 4 mps 748 mmHg 68%
13:00 +15°C° 0 mm 4 mps 748 mmHg 66%
14:00 +14°C° 0 mm 4 mps 747 mmHg 69%
15:00 +14°C° 0 mm 3 mps 747 mmHg 73%
16:00 +13°C° 0 mm 3 mps 746 mmHg 77%
17:00 +12°C° 0 mm 3 mps 746 mmHg 80%
18:00 +12°C° 0 mm 3 mps 746 mmHg 83%
19:00 +11°C° 0 mm 3 mps 746 mmHg 86%
20:00 +11°C° 0 mm 3 mps 746 mmHg 85%
21:00 +12°C° 0 mm 3 mps 746 mmHg 85%
22:00 +12°C° 0 mm 3 mps 746 mmHg 85%
23:00 +12°C° 0 mm 3 mps 746 mmHg 87%

27 October, Tuesday

Time Temperature Precipitation Wind Pressure Humidity
00:00 +11°C° 0 mm 3 mps 746 mmHg 89%
01:00 +10°C° 0 mm 3 mps 746 mmHg 91%
02:00 +10°C° 0 mm 3 mps 746 mmHg 90%
03:00 +10°C° 0 mm 3 mps 746 mmHg 89%
04:00 +10°C° 0 mm 3 mps 746 mmHg 88%
05:00 +10°C° 0 mm 3 mps 746 mmHg 90%
06:00 +10°C° 0 mm 3 mps 746 mmHg 92%
07:00 +9°C° 0 mm 2 mps 747 mmHg 94%
08:00 +10°C° 0 mm 3 mps 747 mmHg 89%
09:00 +12°C° 0 mm 3 mps 747 mmHg 84%
10:00 +13°C° 0 mm 3 mps 747 mmHg 79%
11:00 +13°C° 0 mm 3 mps 748 mmHg 74%
12:00 +14°C° 0 mm 4 mps 748 mmHg 70%
13:00 +15°C° 0 mm 4 mps 748 mmHg 66%
14:00 +14°C° 0 mm 3 mps 749 mmHg 69%
15:00 +13°C° 0 mm 3 mps 749 mmHg 71%
16:00 +14°C° 0 mm 2 mps 749 mmHg 74%
17:00 +13°C° 0 mm 2 mps 749 mmHg 77%
18:00 +12°C° 0 mm 2 mps 750 mmHg 81%
19:00 +12°C° 0 mm 2 mps 750 mmHg 84%
20:00 +10°C° 0 mm 2 mps 750 mmHg 85%
21:00 +10°C° 0 mm 2 mps 751 mmHg 87%
22:00 +11°C° 0 mm 1 mps 751 mmHg 88%
23:00 +11°C° 0 mm 1 mps 751 mmHg 89%

28 October, Wednesday

Time Temperature Precipitation Wind Pressure Humidity
00:00 +11°C° 0 mm 1 mps 751 mmHg 91%
01:00 +11°C° 0 mm 1 mps 751 mmHg 92%
02:00 +11°C° 0 mm 1 mps 751 mmHg 93%
03:00 +11°C° 0 mm 1 mps 752 mmHg 94%
04:00 +9°C° 0 mm 0 mps 752 mmHg 95%
05:00 +9°C° 0 mm 0 mps 752 mmHg 94%
06:00 +9°C° 0 mm 0 mps 752 mmHg 94%
07:00 +10°C° 0 mm 0 mps 753 mmHg 94%
08:00 +10°C° 0 mm 0 mps 753 mmHg 89%
09:00 +11°C° 0 mm 0 mps 753 mmHg 85%
10:00 +12°C° 0 mm 0 mps 753 mmHg 81%
11:00 +13°C° 0 mm 0 mps 753 mmHg 79%
12:00 +13°C° 0 mm 0 mps 753 mmHg 77%
13:00 +14°C° 0 mm 0 mps 753 mmHg 75%
14:00 +15°C° 0 mm 1 mps 753 mmHg 78%
15:00 +14°C° 0 mm 1 mps 753 mmHg 80%
16:00 +14°C° 0 mm 1 mps 753 mmHg 83%
17:00 +13°C° 0 mm 1 mps 753 mmHg 86%
18:00 +12°C° 0 mm 1 mps 754 mmHg 88%
19:00 +12°C° 0 mm 1 mps 754 mmHg 91%
20:00 +11°C° 0 mm 1 mps 754 mmHg 91%
21:00 +11°C° 0 mm 1 mps 754 mmHg 91%
22:00 +10°C° 0 mm 2 mps 754 mmHg 91%
23:00 +10°C° 0 mm 2 mps 754 mmHg 91%
Show more